Hyannis, MA

1:56 PM EDT on August 22, 2017 (GMT -0400)
Barnstable Municipal-Boardman-Polando Field

Weather History for KHYA - February, 2012

Change the Weather History Date:

Saturday, February 25, 2012

  Actual Average Record
Temperature  
Mean Temperature 40 °F -  
Max Temperature 46 °F 40 °F 61 °F (2017)
Min Temperature 32 °F 27 °F 3 °F (1934)
Degree Days  
Heating Degree Days 26    
Moisture  
Dew Point 23 °F    
Average Humidity 53    
Maximum Humidity 89    
Minimum Humidity 33    
Precipitation  
Precipitation 0.00 in - - ()
Sea Level Pressure  
Sea Level Pressure 29.42 in    
Wind  
Wind Speed 21 mph (West)    
Max Wind Speed 34 mph    
Max Gust Speed 44 mph    
Visibility 10 miles    
Events Rain    
Averages and records for this station are not official NWS values.
T = Trace of Precipitation, MM = Missing Value Source: NWS Daily Summary

Daily Weather History Graph

Daily Weather History Graph

Search for Another Location

Airport or City:

Trip Planner

Search our weather history database for the weather conditions in past years. The results will help you decide how hot, cold, wet, or windy it might be!

Date:

Astronomy

Feb. 25, 2012 Rise Set
Actual Time 6:22 AM EST 5:26 PM EST
Civil Twilight 5:54 AM EST 5:54 PM EST
Nautical Twilight 5:22 AM EST 6:26 PM EST
Astronomical Twilight 4:50 AM EST 6:58 PM EST
Moon 7:41 AM EST (2/25) 9:28 PM EST (2/25)
Length of Visible Light 11h 59m
Length of Day
11h 03m
Waxing Crescent, 13% of the Moon is Illuminated
Feb 25
Waxing Crescent
Feb 29
First Quarter
Mar 8
Full
Mar 14
Last Quarter
Mar 22
New

Hourly Weather History & Observations

Time (EST) Temp. Windchill Dew Point Humidity Pressure Visibility Wind Dir Wind Speed Gust Speed Precip Events Conditions
12:56 AM 43.0 °F 35.1 °F 39.9 °F 89% 29.18 in 10.0 mi West 17.3 mph 27.6 mph 0.00 in Rain Light Rain
1:56 AM 41.0 °F 31.9 °F 37.0 °F 86% 29.22 in 10.0 mi West 19.6 mph 27.6 mph 0.00 in   Scattered Clouds
2:56 AM 39.9 °F 31.1 °F 34.0 °F 79% 29.25 in 10.0 mi West 17.3 mph 26.5 mph N/A   Scattered Clouds
3:56 AM 37.9 °F 29.2 °F 33.1 °F 83% 29.27 in 10.0 mi WSW 15.0 mph - N/A   Clear
4:56 AM 37.9 °F 28.5 °F 28.9 °F 70% 29.29 in 10.0 mi WSW 17.3 mph 26.5 mph N/A   Clear
5:56 AM 39.0 °F 28.0 °F 27.0 °F 62% 29.31 in 10.0 mi WSW 25.3 mph 32.2 mph N/A   Clear
6:56 AM 39.0 °F 28.0 °F 25.0 °F 57% 29.33 in 10.0 mi WSW 25.3 mph 34.5 mph N/A   Clear
7:56 AM 41.0 °F 31.1 °F 24.1 °F 51% 29.36 in 10.0 mi WSW 23.0 mph 35.7 mph N/A   Clear
8:56 AM 42.1 °F 31.7 °F 23.0 °F 47% 29.36 in 10.0 mi WSW 27.6 mph 36.8 mph N/A   Clear
9:56 AM 44.1 °F 33.7 °F 21.9 °F 42% 29.36 in 10.0 mi West 32.2 mph 42.6 mph N/A   Overcast
10:56 AM 42.8 °F 33.1 °F 19.4 °F 39% 29.35 in 10.0 mi West 25.3 mph 34.5 mph N/A   Overcast
11:56 AM 45.0 °F 35.4 °F 18.0 °F 34% 29.36 in 10.0 mi WSW 28.8 mph 43.7 mph N/A   Scattered Clouds
12:56 PM 46.0 °F 36.1 °F 18.0 °F 33% 29.34 in 10.0 mi WSW 34.5 mph 43.7 mph N/A   Mostly Cloudy
1:56 PM 46.0 °F 36.9 °F 18.0 °F 33% 29.36 in 10.0 mi WSW 28.8 mph 40.3 mph N/A   Overcast
2:56 PM 44.1 °F 35.4 °F 17.1 °F 34% 29.38 in 10.0 mi West 21.9 mph 34.5 mph N/A   Scattered Clouds
3:56 PM 44.1 °F 34.6 °F 17.1 °F 34% 29.42 in 10.0 mi WSW 26.5 mph 34.5 mph N/A   Mostly Cloudy
4:56 PM 43.0 °F 36.0 °F 18.0 °F 37% 29.45 in 10.0 mi West 13.8 mph 36.8 mph N/A   Overcast
5:56 PM 39.2 °F 30.8 °F 19.4 °F 45% 29.50 in 10.0 mi West 15.0 mph 31.1 mph N/A   Partly Cloudy
6:56 PM 37.9 °F 27.3 °F 21.0 °F 51% 29.53 in 10.0 mi West 21.9 mph 33.4 mph N/A   Clear
7:56 PM 37.4 °F 30.3 °F 21.2 °F 52% 29.58 in 10.0 mi WNW 10.4 mph - N/A   Scattered Clouds
8:56 PM 35.1 °F 25.5 °F 16.0 °F 46% 29.64 in 10.0 mi WNW 15.0 mph 34.5 mph N/A   Clear
9:56 PM 33.1 °F 23.4 °F 16.0 °F 50% 29.69 in 10.0 mi West 13.8 mph 23.0 mph N/A   Clear
10:56 PM 33.8 °F 24.3 °F 17.6 °F 52% 29.71 in 10.0 mi WNW 13.8 mph 24.2 mph N/A   Partly Cloudy
11:56 PM 32.0 °F 21.6 °F 17.6 °F 55% 29.76 in 10.0 mi WNW 15.0 mph 27.6 mph N/A   Clear